TimePDT,TemperatureF,Dew PointF,Humidity,Sea Level PressureIn,VisibilityMPH,Wind Direction,Wind SpeedMPH,Gust SpeedMPH,PrecipitationIn,Events,Conditions,WindDirDegrees,DateUTC
12:53 AM,69.1,46.0,44,29.86,10.0,NW,11.5,-,N/A,,Clear,310,2013-07-23 07:53:00
1:53 AM,69.1,43.0,39,29.88,10.0,Variable,4.6,-,N/A,,Clear,0,2013-07-23 08:53:00
2:53 AM,72.0,42.1,34,29.88,10.0,NW,10.4,-,N/A,,Clear,320,2013-07-23 09:53:00
3:53 AM,66.9,43.0,42,29.90,10.0,NW,6.9,-,N/A,,Clear,320,2013-07-23 10:53:00
4:53 AM,68.0,43.0,40,29.92,10.0,NNW,9.2,-,N/A,,Clear,330,2013-07-23 11:53:00
5:53 AM,64.0,43.0,46,29.94,10.0,NW,8.1,-,N/A,,Clear,320,2013-07-23 12:53:00
6:53 AM,71.1,45.0,39,29.95,10.0,NW,6.9,-,N/A,,Clear,320,2013-07-23 13:53:00
7:53 AM,75.9,45.0,33,29.95,10.0,NNW,11.5,-,N/A,,Clear,330,2013-07-23 14:53:00
8:53 AM,79.0,45.0,30,29.96,10.0,North,10.4,-,N/A,,Clear,360,2013-07-23 15:53:00
9:53 AM,82.9,44.1,25,29.96,10.0,North,12.7,-,N/A,,Clear,360,2013-07-23 16:53:00
10:53 AM,88.0,44.1,22,29.94,10.0,North,10.4,19.6,N/A,,Clear,350,2013-07-23 17:53:00
11:53 AM,91.9,43.0,18,29.93,10.0,North,10.4,-,N/A,,Clear,350,2013-07-23 18:53:00
12:53 PM,91.9,42.1,18,29.91,10.0,Variable,3.5,-,N/A,,Clear,0,2013-07-23 19:53:00
1:53 PM,93.9,37.0,14,29.90,10.0,SSW,6.9,-,N/A,,Clear,200,2013-07-23 20:53:00
2:53 PM,95.0,37.9,14,29.88,10.0,WNW,3.5,-,N/A,,Clear,290,2013-07-23 21:53:00
3:53 PM,97.0,39.0,13,29.86,10.0,Variable,4.6,-,N/A,,Clear,0,2013-07-23 22:53:00
4:53 PM,98.1,32.0,10,29.84,10.0,SW,9.2,-,N/A,,Clear,220,2013-07-23 23:53:00
5:53 PM,98.1,28.9,9,29.82,10.0,SSW,6.9,-,N/A,,Clear,200,2013-07-24 00:53:00
6:53 PM,96.1,34.0,11,29.81,10.0,SSW,3.5,-,N/A,,Clear,200,2013-07-24 01:53:00
7:53 PM,93.9,36.0,13,29.81,10.0,SSE,3.5,-,N/A,,Clear,150,2013-07-24 02:53:00
8:53 PM,80.1,43.0,27,29.82,10.0,SW,4.6,-,N/A,,Clear,220,2013-07-24 03:53:00
9:53 PM,78.1,39.0,25,29.83,10.0,South,5.8,-,N/A,,Clear,170,2013-07-24 04:53:00
10:53 PM,75.0,41.0,29,29.85,10.0,West,6.9,-,N/A,,Clear,280,2013-07-24 05:53:00
11:53 PM,69.1,41.0,36,29.86,10.0,NW,6.9,-,N/A,,Clear,320,2013-07-24 06:53:00